Powrót do katalogu

PEGASUS DEB

AktywnyPO
NORAD 29033·DEBRIS·🇺🇸 United States

Wystrzelony May 19, 1994 z Vandenberg Space Force Base

Loading…

Następne Przeloty (najbliższe 24 godziny)

TLE

ŚwieżeSource: Space-Track

Epoka: Sep 14, 2026, 14:57 UTC

1 29033U 94029AEQ 26257.62337060  .00007690  00000-0  95365-3 0  9993
2 29033  81.9594 219.6061 0155824 103.8931 257.9666 14.74209572242291

Śledź PEGASUS DEB w czasie rzeczywistym z AllMySat

Download on the App Store